Air Resources Laboratory banner image
Air Resources Laboratory web site National Oceanic and Atmospheric Administration (NOAA)

ca roundup


Office: LOX

ASUS46 KLOX 191103
RWRCA

SOUTHERN CALIFORNIA WEATHER ROUNDUP
NATIONAL WEATHER SERVICE OXNARD CALIFORNIA
400 AM PDT THU JUL 19 2018

NOTE: "FAIR" INDICATES FEW OR NO CLOUDS BELOW 12,000 FEET WITH NO
SIGNIFICANT WEATHER AND/OR OBSTRUCTIONS TO VISIBILITY.

  -  STATIONS PRECEEDED BY AN ASTERISK (*) ARE NOT NWS OR FAA
     STATIONS AND ARE NOT SUBJECT TO NWS AND FAA QUALITY CONTROL.

CAZ041-042-087-191200-
LA AND ORANGE COUNTY COASTAL AREAS


CITY           SKY/WX    TMP DP  RH WIND       PRES   REMARKS
L.A. DOWNTOWN  CLEAR     71  64  78 CALM      29.94S
L.A. AIRPORT   PTCLDY    70  66  87 SW5       29.95S
LONG BEACH     CLEAR     70  65  84 S3        29.95R

CITY           SKY/WX    TMP DP  RH WIND       PRES   REMARKS
AVALON           N/A     64 N/A N/A SE2         N/A
FULLERTON      CLEAR     71  63  75 CALM      29.94S
*GETTY CENTER    N/A    N/A N/A N/A SW3         N/A
HAWTHORNE      CLEAR     70  64  81 SW3       29.95S
*LEO CARRILLO    N/A     66  64  93 CALM        N/A
*REDONDO BEACH   N/A     67  63  84 CALM      29.93S
SANTA ANA      CLEAR     71  64  78 SW6       29.94S
STA MONICA APT CLEAR     68  64  87 SW3       29.95S
*UCLA            N/A     68  63  83 CALM      29.93R

$$

CAZ547-548-048-191200-
LA COUNTY VALLEYS AND INLAND EMPIRE


CITY           SKY/WX    TMP DP  RH WIND       PRES   REMARKS
BURBANK        CLEAR     69  66  90 S3        29.95F
VAN NUYS       CLEAR     71  63  75 SE3       29.95S

CITY           SKY/WX    TMP DP  RH WIND       PRES   REMARKS
CORONA AIRPORT SUNNY     67  63  87 W3        29.96S
*CHATSWORTH      N/A     70  62  77 CALM      29.91S
CHINO          CLEAR     70  64  81 CALM      29.97S
*CLAREMONT       N/A     66  63  91 CALM        N/A
*NORTHRIDGE      N/A    N/A N/A N/A E1          N/A
ONTARIO        PTCLDY    69  62  78 SW8       29.96F
*PASADENA        N/A     70  66  88 CALM        N/A
RIVERSIDE      CLEAR     70  63  78 CALM      29.97R
SAN BERNARDINO FAIR      71  62  73 CALM      29.97S
*SAN RAFAEL HI   N/A     66  64  93 CALM        N/A
*SAUGUS          N/A     69  63  80 CALM        N/A
*WHITEMAN AP   NOT AVBL
*WHITTIER HILL   N/A     66  65  98 CALM        N/A
*WOODLAND HILL   N/A    N/A N/A N/A CALM        N/A

$$

CAZ054-055-191200-
LA AND SAN BERNARDINO COUNTY MOUNTAINS


CITY           SKY/WX    TMP DP  RH WIND       PRES   REMARKS
*ACTON           N/A     69  61  75 CALM        N/A
*BIG BEAR AIRP SUNNY     52  45  76 CALM      30.31S
*BIG PINES       N/A     64  54  68 CALM        N/A
*CHILAO          N/A     72  55  55 N2          N/A
SANDBERG       CLEAR     76  45  33 NW12      30.15F
*WARM SPRINGS    N/A     73  57  57 SW7         N/A

$$

CAZ028-029-059-060-099-191200-
ANTELOPE VALLEY AND SURROUNDING AREAS


CITY           SKY/WX    TMP DP  RH WIND       PRES   REMARKS
LANCASTER      PTCLDY    77  61  57 W6        29.98S
PALMDALE       PTCLDY    79  60  52 SE5       29.99F
*POPPY PARK      N/A     77  61  56 SW9         N/A

CITY           SKY/WX    TMP DP  RH WIND       PRES   REMARKS
29 PALMS       CLEAR     83  67  58 E5        30.04S
BARSTOW/DAGGET CLEAR     85  63  47 W8        29.96S
BISHOP         PTCLDY    72  54  53 NW7       30.09R
CHINA LAKE     CLEAR     84  46  26 S9        29.94S
MOJAVE         PTCLDY    81  39  22 SW5       29.99S
NEEDLES        CLEAR     93  70  46 SW12      29.89F HX  99

$$

CAZ039-040-191200-
VENTURA AND SANTA BARBARA COUNTY COAST


CITY           SKY/WX    TMP DP  RH WIND       PRES   REMARKS
CAMARILLO      MOCLDY    68  62  81 SW3       29.94S
NWS OXNARD       N/A     66  61  83 S2        29.93S
OXNARD AIRPORT CLEAR     65  63  93 W3        29.95R
*POINT MUGU    CLOUDY    67  63  87 W5        29.95S
SBA APT/GOLETA CLEAR     63  61  93 CALM      29.94S
*SANTA BARBARA   N/A     66  60  80 CALM      30.01S
*VENTURA         N/A    N/A N/A N/A MISG        N/A

$$

CAZ044-045-191200-
VENTURA COUNTY VALLEYS


CITY           SKY/WX    TMP DP  RH WIND       PRES   REMARKS
*SIMI VALLEY     N/A     68  62  82 CALM      29.88S
*WESTLAKE VILL   N/A     64  59  84 CALM      29.90S
*OJAI            N/A     65  61  87 CALM      29.87S
*FILLMORE        N/A     64  60  88 CALM      29.97F

$$

CAZ053-191200-
VENTURA COUNTY MOUNTAINS


CITY           SKY/WX    TMP DP  RH WIND       PRES   REMARKS
*LOCKWOOD VLY    N/A     55  39  54 MISG        N/A
*ROSE VALLEY     N/A     61  50  67 MISG        N/A

$$

CAZ034-035-036-191200-
CENTRAL COAST AND SANTA YNEZ VALLEY


CITY           SKY/WX    TMP DP  RH WIND       PRES   REMARKS
SAN LUIS OBISP PTCLDY    58  54  86 CALM      29.96S
SANTA MARIA    CLOUDY    58  56  93 W3        29.97S

CITY           SKY/WX    TMP DP  RH WIND       PRES   REMARKS
*CAL POLY SLO    N/A     57  55  94 S1          N/A
*LOMPOC        CLOUDY    56  55  97 W3        29.96F
*PISMO BEACH     N/A     58  32  38 CALM      29.97S
*SANTA YNEZ    FAIR      59  54  82 CALM      29.95F

$$

CAZ037-038-051-191200-
SAN LUIS OBISPO COUNTY INTERIOR AND CUYAMA VALLEY


CITY           SKY/WX    TMP DP  RH WIND       PRES   REMARKS
PASO ROBLES    CLEAR     63  53  70 N3        29.95S

$$

CAZ032-033-061-191200-
SOUTHERN DESERTS


CITY           SKY/WX    TMP DP  RH WIND       PRES   REMARKS
BLYTHE         CLEAR     88  65  46 S14       29.89S HX  90
IMPERIAL       CLEAR     84  72  67 SE7       29.85S
PALM SPRINGS   CLEAR     89  69  51 NE6       29.91S HX  93
THERMAL        NOT AVBL

$$

ELSEWHERE ACROSS THE WESTERN UNITED STATES AND MEXICO


CITY           SKY/WX    TMP DP  RH WIND       PRES   REMARKS
DENVER, CO     MOCLDY    65  53  65 W8        30.14R
GRAND CANYON,  MOCLDY    57  55  93 CALM      30.33R
HONOLULU, HI   PTCLDY    79  68  69 NE9       30.01F
KAHULUI, MAUI  PTCLDY    77  71  82 NE20G26   30.00F
LAKE TAHOE, CA CLEAR     46  38  73 CALM      30.30F
LAS VEGAS, NV  PTCLDY    92  62  36 SW5       29.91S HX  92
MAMMOTH LAKES, FAIR      57  40  53 CALM      30.36F
MEXICO CITY, M PTCLDY    57  52  82 E3        30.34F
PHOENIX, AZ    PTCLDY    88  70  55 W13       29.90S HX  93
PORTLAND, OR   MOCLDY    60  51  72 NW8       30.17R
RENO, NV       CLEAR     71  44  37 SE5       30.15S
SALT LAKE CITY PTCLDY    72  44  36 S5        30.05R
SAN DIEGO, CA  CLOUDY    69  63  81 W5        29.97R
SAN FRANCISCO, MOCLDY    55  54  96 W6        29.93R
SAN JOSE, CA   CLEAR     62  58  86 NW3       29.93S
SEATTLE, WA    CLOUDY    56  51  84 S5        30.16S
TIJUANA, MEX   CLEAR     64  63  94 NW3       29.99S

$$

STATION/POSITION TIME  TEMP    WIND        PRES    VSBY  WAVE
                       AIR SEA DIR/SP/G                  HT/PER
                 (UTC) (F)     (DEG/KT/KT) (MB)    (MI)  (FT/S)
POINT ARGUELLO B NOT AVBL
WEST SANTA BARBA 1050      61  300/  8/ 12 1013.6F         4/10
POINT CONCEPTION NOT AVBL
EAST SANTA BARBA 1050   64 68  270/  8/  8 1014.2F         2/ 8
SANTA MONICA BAY 1050   66 71  210/  8/ 10 1013.8F         2/13



Office: STO ASUS46 KSTO 191104 RWRCA NORTHERN AND CENTRAL CA REGIONAL WEATHER ROUNDUP NATIONAL WEATHER SERVICE SACRAMENTO CA 300 AM PDT THU JUL 19 2018 NOTE: FAIR INDICATES FEW OR NO CLOUDS BELOW 12,000 FEET WITH NO SIGNIFICANT WEATHER AND/OR OBSTRUCTIONS TO VISIBILITY. CAZ001-003-191100- NORTHWEST AREA CITY SKY/WX TMP DP RH WIND PRES REMARKS CRESCENT CITY CLOUDY 54 50 86 CALM 30.03S UKIAH CLEAR 65 53 65 CALM 29.91S $$ CAZ006-505>513-191100- BAY AREA CITY SKY/WX TMP DP RH WIND PRES REMARKS SANTA ROSA CLOUDY 53 53 100 CALM 29.92S FOG SAN RAFAEL N/A 57 MM MM MISG NAPA CLEAR 54 52 93 W3 29.92S CONCORD CLEAR 61 54 77 NW7 29.89S OAKLAND CITY N/A MM MM MM MISG OAKLAND CLOUDY 57 56 96 NW7 29.94S SAN FRAN CITY N/A 56 MM 96 MISG SAN FRAN ARPT PTCLDY 55 54 96 W7 29.92F LIVERMORE CLEAR 64 55 72 NW5 29.90S HAYWARD CLOUDY 60 55 83 N5 29.93S REDWOOD CITY N/A 61 MM 85 MISG MOFFETT ARPT CLOUDY 60 60 100 N3 29.93F SAN JOSE ARPT CLEAR 62 58 86 NW5 29.93R $$ CAZ034-037-514>518-191100- CENTRAL COAST CITY SKY/WX TMP DP RH WIND PRES REMARKS WATSONVILLE CLOUDY 57 56 96 CALM 29.97R FOG SALINAS CLOUDY 57 56 96 CALM 29.96S FOG MONTEREY CLOUDY 56 54 93 S5 29.97S SAN LUIS OBISP PTCLDY 58 54 86 NW3 29.96F SANTA MARIA CLOUDY 58 56 93 CALM 29.97S $$ CAZ015-016-191100- NORTHERN SACRAMENTO VALLEY CITY SKY/WX TMP DP RH WIND PRES REMARKS RED BLUFF CLEAR 78 60 53 W7 29.87R OROVILLE CLEAR 77 60 55 S6 29.86R $$ CAZ016>018-191100- SOUTHERN SACRAMENTO VALLEY CITY SKY/WX TMP DP RH WIND PRES REMARKS AUBURN CLEAR 81 54 39 E10 29.93F LINCOLN FAIR 73 55 53 S8 29.84S MARYSVILLE CLEAR 72 60 66 S5 29.84F SAC INTL ARPT CLEAR 69 55 60 S8 29.83S MATHER AIRPORT CLEAR 68 54 60 S5 29.85 DOWNTOWN SAC N/A 70 MM MM MISG SAC EXEC ARPT CLEAR 68 55 63 S6 29.85S VACAVILLE CLEAR 67 55 65 SW6 29.84S $$ CAZ019>021-191100- SAN JOAQUIN VALLEY CITY SKY/WX TMP DP RH WIND PRES REMARKS STOCKTON CLEAR 70 57 63 NW7 29.84S MODESTO CLEAR 75 60 59 CALM 29.84S MERCED CLEAR 74 61 63 NW3 29.84S LEMOORE PTCLDY 77 53 43 CALM 29.86S FRESNO PTCLDY 82 58 43 CALM 29.87R HANFORD PTCLDY 73 62 68 N3 29.86F PORTERVILLE CLEAR 77 56 48 S5 29.88S BAKERSFIELD PTCLDY 85 48 27 CALM 29.87F $$ CAZ011-012-071-191100- NORTHERN MOUNTAINS CITY SKY/WX TMP DP RH WIND PRES REMARKS YREKA MOCLDY 70 46 42 N10 30.11S MOUNT SHASTA MOCLDY 64 46 52 CALM 30.14R ALTURAS PTCLDY 55 41 59 N3 30.18S $$ CAZ011-012-071-191100- SIERRA NEVADA MTNS CITY SKY/WX TMP DP RH WIND PRES REMARKS BLUE CANYON CLEAR 73 43 33 NE5 30.23F TRUCKEE CLEAR 48 39 71 CALM 30.30S TAHOE VLY ARPT CLEAR 47 40 76 CALM 30.31S MAMMOTH LAKES FAIR 61 41 48 CALM 30.37F $$
Office: SGX ASUS46 KSGX 191011 RWRSGX SAN DIEGO HOURLY WEATHER ROUNDUP NATIONAL WEATHER SERVICE SAN DIEGO CA 300 AM PDT THU JUL 19 2018 NOTE: "FAIR" INDICATES FEW OR NO CLOUDS BELOW 12,000 FEET WITH NO SIGNIFICANT WEATHER AND/OR OBSTRUCTIONS TO VISIBILITY. CAZ042-043-060-061-PZZ750-775-191100- GREATER SAN DIEGO AREA CITY SKY/WX TMP DP RH WIND PRES REMARKS SAN DIEGO AP PTCLDY 69 62 78 W5 29.97S NATIONAL CITY N/A 68 64 86 CALM 29.95F CHULA VISTA N/A 67 64 92 CALM 29.88S IMPERIAL BEACH CLOUDY 67 62 84 SW5 29.96S BROWN FIELD CLEAR 65 62 90 SW6 29.96F MIRAMAR MCAS CLEAR 69 61 75 W5 29.95F MONTGOMERY FLD CLEAR 67 62 84 W7 29.96F GILLESPIE FLD FAIR 68 61 77 W6 29.94F $$ NORTH SAN DIEGO COUNTY CITY SKY/WX TMP DP RH WIND PRES REMARKS CAMP PENDLETON CLEAR 65 63 93 CALM 29.95S OCEANSIDE AP CLEAR 67 62 84 CALM 29.94F OCEANSIDE HBR N/A 69 66 89 S1 29.97S VISTA N/A 67 62 83 CALM 29.92F CARLSBAD CLEAR 65 64 97 CALM 29.95S DEL MAR N/A 65 63 91 CALM 29.96F LA JOLLA SCRIP N/A 66 64 93 CALM 29.94F ESCONDIDO N/A 69 64 83 W2 29.94F SAN MARCOS N/A 67 63 86 CALM 29.98F POWAY N/A 67 62 83 CALM 29.93F $$ EAST SAN DIEGO COUNTY CITY SKY/WX TMP DP RH WIND PRES REMARKS RAMONA CLEAR 67 61 81 CALM 29.97F LA MESA N/A 66 62 88 CALM 29.89F JAMUL N/A 64 61 90 CALM 29.94S CAMPO N/A 66 57 72 N5 30.00F $$ ORANGE COUNTY AND THE LOS ANGELES BASIN CITY SKY/WX TMP DP RH WIND PRES REMARKS JOHN WAYNE AP CLEAR 71 64 78 CALM 29.94F LAKE FOREST FR N/A 67 61 81 CALM 29.81F HUNTINGTON BCH N/A 68 65 89 CALM 29.95F LOS ALAMITOS FAIR 68 64 87 SW3 29.94F FULLERTON CLEAR 71 63 75 CALM 29.94F LONG BEACH CLEAR 71 65 81 S3 29.94F L.A. AP PTCLDY 71 64 78 S5 29.95S L.A. DOWNTOWN CLEAR 72 64 76 CALM 29.94F $$ THE INLAND EMPIRE CITY SKY/WX TMP DP RH WIND PRES REMARKS CORONA CLEAR 66 62 87 MISG 29.96F CHINO CLEAR 70 64 81 CALM 29.97F ONTARIO PTCLDY 69 62 78 W8 29.97S SAN BERNARDINO FAIR 71 62 72 W5 29.97S RIVERSIDE AP CLEAR 70 63 78 W3 29.96F MORENO VALLEY N/A 69 66 88 CALM 28.09F HORSETHIEF CYN N/A 68 60 76 CALM 29.93F PERRIS N/A 69 65 86 NW2 N/A HEMET EAST N/A 69 62 77 CALM 29.86F FRENCH VALLEY FAIR 68 63 83 CALM 29.99S TEMECULA N/A 68 65 90 CALM 30.03F $$ SAN BERNARDINO AND RIVERSIDE COUNTY MOUNTAINS CITY SKY/WX TMP DP RH WIND PRES REMARKS BIG BEAR AP CLEAR 54 46 76 CALM 30.31F ANGELUS OAKS N/A 62 52 68 CALM 29.79S $$ SOUTHERN DESERT INCLUDING THE COACHELLA VALLEY CITY SKY/WX TMP DP RH WIND PRES REMARKS PALM SPRINGS CLEAR 90 70 51 NE5 29.91S HX 95 THOUSAND PALMS N/A 87 71 57 E3 29.86R PALM DESERT N/A 88 71 56 CALM N/A THERMAL NOT AVBL BLYTHE CLEAR 89 66 46 S8 29.89S IMPERIAL AP CLEAR 85 70 60 NE8 29.85S EL CENTRO NAS CLEAR 83 67 58 E3 29.87S YUMA AZ CLEAR 85 68 56 VRB5 29.88F $$ UPPER DESERT CITY SKY/WX TMP DP RH WIND PRES REMARKS HESPERIA N/A 79 62 55 W3 29.84S APPLE VALLEY N/A 71 63 74 CALM 29.86F PALMDALE CLEAR 83 60 45 CALM 30.00F LANCASTER CLEAR 78 62 57 W12 29.98F EDWARDS AFB CLEAR 79 60 51 SW12 29.96S DAGGETT CLEAR 86 63 45 W8 29.96S 29 PALMS N CLEAR 84 66 54 SW9 30.04S NEEDLES CLEAR 94 71 47 S9 29.90R HX 101 $$ REGIONAL REPORTS CITY SKY/WX TMP DP RH WIND PRES REMARKS SANTA BARBARA CLEAR 63 60 90 W3 29.94F SANDBERG CLEAR 74 51 44 W8 30.16F LAS VEGAS NV PTCLDY 92 62 36 S7 29.91F PHOENIX AZ PTCLDY 90 70 51 W17 29.90S HX 95 TIJUANA CLEAR 64 63 94 CALM 29.99 ENSENADA NW N/A 66 32 27 CALM 29.90F $$ OFFSHORE ISLANDS CITY SKY/WX TMP DP RH WIND PRES REMARKS CATALINA ARPT CLEAR 65 57 75 CALM 29.99F SAN CLEMENTE I CLOUDY 65 63 93 SW5 29.97F SAN NICOLAS IS FOG 62 32 32 CALM 29.96S VSB 1/2 $$ MARINE AND OFFSHORE BUOY REPORTS STATION/POSITION SKY/WX TEMP WIND PRES VSBY SWELL AIR SEA DIR/SP/G HT/PER/DIR (F) (DEG/KT/KT) (MB) (MI) (FT/S/D) TANNER BANKS 61 65 1014.3F S CLEMENTE BASIN 65 67 210/ 8/ 8 1014.4F 2/180/13 SAN NICOLAS IS. 62 N/A 2/200/13 SO. S. ROSA ISLA 60 64 310/ 8/ 8 1014.4F 3/320/ 9 W. S. BARBARA CH 61 300/ 10/ 12 1013.9 M. S. BARBARA CH 64 68 280/ 8/ 10 1014.5 S. MONICA BASIN 67 71 200/ 6/ 8 1013.9F S PEDRO CHANNEL 71 N/A CMP PENDLETON NS 75 N/A 2/220/18 OCEANSIDE OFFSHR 75 N/A 2/200/13 TORREY PINES OTR 72 N/A 2/200/14 SAN DIEGO BAY 76 1014.0F POINT LOMA SOUTH 70 N/A 2/200/13 $$
Office: LKN ASUS65 KLKN 190617 RTPLKN Regional Temperature And Precipitation Table...Late Evening National Weather Service Elko NV 1117 PM PDT Wed Jul 18 2018 ***Automated Airport Stations*** Values represent lows over the last 24 hours... Highs over the last 24 hours and precipitation over the last 24 hours...ending at 10 PM PST/11 PM PDT. .BR LKN 0718 P DH22/TAIRZS/TAIRZI/PPDRZZ/SFDRZZ/SDIRZZ : :ID Station Elev / Max / Min / Pcpn / :.................................................................... : EKO : Elko ASOS 5074 : 101 / 56 / 0.00 / ELY : Ely ASOS 6262 : 95 / 57 / 0.00 / P68 : Eureka ASOS 5936 : 100 / 53 / 0.00 / TPH : Tonopah ASOS 5395 : 99 / 67 / 0.00 / ENV : Wendover AWOS 4236 : 100 / 69 / 0.00 / WMC : Winnemucca ASOS 4314 : 102 / 53 / 0.00 / .END ***Manual synoptic reporting stations in north and central Nevada*** Values reflect the previous 24 hours ending at 10 PM PST/11 PM PDT *Snow stations may only report during periods of snowfall* .BR LKN 0718 P DH22/TAIRZX/TAIRZN/PPDRZZ/SFDRZZ/SDIRZZ : Snow Snow :ID Station Elev Max / Min / Pcpn / Fall / Dpth :.................................................................... : SLKN2 : Elko NWS Office 5235 : 100 / 58 / 0.00 / 0.0 / 0 SELN2 : Ely Snow 6487 : M / M / M / M / M SWIN2 : Winnemucca Snow 4355 : M / M / M / M / M .END ***Cooperative stations in north and central Nevada*** Values reflect the previous 24 hours Report time as indicated .BR LKN 0718 P DH16/TAIRZX/TAIRZN/PPDRZZ/SFDRZZ/SDIRZZ : Snow Snow :ID Station Elev Time / Max / Min / Pcpn / Fall / Dpth :.................................................................... : B23 : Battle MT. 4SE 4505 5 PM: 103 / 57 / 0.00 / 0.0 / 0 BOWN2 : Beowawe 4700 4 PM: 102 / 52 / 0.00 / 0.0 / 0 MCDN2 : McDermitt 4340 4 PM: 98 / 51 / 0.00 / 0.0 / 0 MTON2 : Montello 14SSE 5213 10 PM: M / M / M / M / M ORVN2 : Orovada 3W 4200 8 PM: 103 / 50 / 0.00 / 0.0 / 0 WLSN2 : Wells 7NNE 5831 9 PM: 95 / 48 / 0.00 / 0.0 / 0 WDVU1 : Wendover 1SSW 4244 11 PM: M / M / M / M / M AWH : Wild Horse Res. 6239 6 PM: 92 / 40 / 0.00 / 0.0 / 0 M = Missing data T = Trace amounts ASOS = Automated Surface Observing System AWOS = Automated Weather Observation System NWS = National Weather Service These data are preliminary and have not undergone final quality control (QC) by NCEI. Therefore, these data are subject to revision. Final and certified data can be accessed at the National Centers For Environmental Information (NCEI) - www.ncei.noaa.gov $$
Office: REV ASUS45 KREV 191010 RWRNV NEVADA REGIONAL WEATHER ROUNDUP NATIONAL WEATHER SERVICE RENO NV 300 AM PDT THU JUL 19 2018 NOTE: "FAIR" INDICATES FEW OR NO CLOUDS BELOW 12,000 FEET WITH NO SIGNIFICANT WEATHER AND/OR OBSTRUCTIONS TO VISIBILITY. NVZ001-003-004-191100- WESTERN NEVADA CITY SKY/WX TMP DP RH WIND PRES REMARKS RENO CLEAR 74 45 35 W7 30.15S CARSON CITY FAIR 64 37 36 CALM 30.19S MINDEN FAIR 55 36 47 S5 30.20S SLIDE MTN N/A 63 41 45 E1 N/A FALLON CLEAR 69 44 40 S3 30.07S LOVELOCK CLEAR 68 35 29 N6 30.07R $$ NVZ002-CAZ072-073-191100- NORTHERN AND CENTRAL SIERRA CITY SKY/WX TMP DP RH WIND PRES REMARKS S. LAKE TAHOE CLEAR 47 40 76 CALM 30.31S TRUCKEE CLEAR 48 39 71 CALM 30.30S SQUAW VLY 8000 N/A 61 32 33 MISG N/A BLUE CANYON CLEAR 73 43 33 NE5 30.23F MAMMOTH LAKES FAIR 61 41 48 CALM 30.37F BRIDGEPORT FAIR 54 30 40 CALM 30.34S $$ NVZ030-031-036-191100- NORTHERN NEVADA CITY SKY/WX TMP DP RH WIND PRES REMARKS ELKO CLEAR 60 33 36 W3 30.16R WINNEMUCCA CLEAR 63 24 22 W7 30.11R $$ NVZ035-037-191100- CENTRAL NEVADA CITY SKY/WX TMP DP RH WIND PRES REMARKS ELY PTCLDY 71 51 49 S9 30.24S EUREKA N/A 62 28 27 S9 30.22S $$ NVZ013-014-191100- SOUTH CENTRAL NEVADA CITY SKY/WX TMP DP RH WIND PRES REMARKS TONOPAH MOCLDY 73 52 47 N5 30.20S $$ NVZ017-020-022-191100- SOUTHERN NEVADA CITY SKY/WX TMP DP RH WIND PRES REMARKS LAS VEGAS PTCLDY 92 62 36 S7 29.91F N. LAS VEGAS CLEAR 90 62 39 SE8 29.92S NELLIS AFB CLEAR 93 62 35 E7 29.90S HENDERSON PTCLDY 90 62 39 S10 29.97R MERCURY CLEAR 87 58 37 SW9 30.01S $$